PROFILE

 METAR AND TAF INFORMATION
ADDS - METARS form results

(0009 UTC 27 May 2019)
http://aviationweather.gov/metar/data/
 
TIST 262353Z 07005KT 10SM SCT026 28/22 A2995 RMK AO2 SLP142 T02830222 10300 20283 53012 $
TIST 262323Z 2700/2724 08007KT P6SM SCT030 FM270600 09005KT P6SM VCSH SCT022 SCT050 FM271400 14013KT P6SM FEW030 SCT050 FM272300 11007KT P6SM SCT030 

 AIRPORT MAP

 RUNWAY INFORMATION
Runway 10 Runway length 7000 ft Runway width 150 ft
Runway elevation 23 ft Runway displaced threshold 0 ft Runway heading 88
Runway 28 Runway length 7000 ft Runway width 150 ft
Runway elevation 11 ft Runway displaced threshold 2300 ft Runway heading 268

 AIRPORT FREQUENCIES
Type A/D Name SAN JUAN C Frequency 128.65 MHZ
Type APP Name ST THOMAS Frequency 118.8 MHZ
Type ATIS Name ATIS Frequency 124 MHZ
Type CTAF Name CTAF Frequency 118.8 MHZ
Type DEP Name ST THOMAS Frequency 118.8 MHZ
Type GND Name GND Frequency 121.9 MHZ
Type RDO Name SAN JUAN R Frequency 108.6 MHZ
Type TWR Name ST THOMAS Frequency 118.1 MHZ
Type UNIC Name UNICOM Frequency 122.95 MHZ

 AIRPORT NEAR NAVIGATION AIDS
Type VOR-DME Name St Thomas Frequency 108600 KHZ